Wind_Speed
78 77 77 76 75 76 76 75 75 76 76 77 78 80 81 82 83 83 83 83 82 81 80 78 77 77 78 79 81 81 81 82 82 82 82 82 82 82 84 85 86 87 88 88 87 87 86 85 84 84 83 83 83 85 87 89 91 92 93 94 96 96 98 99 100 101 103 103 104 104 104 104 104 104 105 105 106 106 108 109 111 113 114 115 116
80 80 80 79 79 79 79 79 79 79 79 80 81 82 83 84 85 86 86 86 85 84 82 82 82 82 81 82 83 84 85 85 85 85 85 85 85 86 88 89 89 89 89 88 87 86 85 85 85 85 85 84 85 86 88 90 91 93 95 96 97 98 99 100 101 102 102 103 103 103 103 104 104 104 104 105 106 107 109 111 112 114 115 116 117
83 83 83 83 83 82 82 82 83 83 83 83 83 84 85 86 87 88 89 89 88 86 84 84 85 85 85 85 86 87 87 88 87 87 88 89 89 90 91 90 90 89 88 86 86 85 85 85 86 86 86 86 86 87 89 90 92 93 95 96 97 98 99 100 100 101 101 101 102 102 103 103 103 104 104 106 107 109 110 112 113 114 116 117 118
86 86 86 86 86 85 85 85 85 86 86 86 85 86 86 88 89 91 91 92 91 89 87 87 87 87 88 88 88 89 89 88 89 90 92 92 92 92 91 90 89 88 87 86 85 85 85 85 86 87 87 87 87 88 89 90 91 92 94 95 96 97 99 99 99 100 100 100 101 101 102 103 104 105 106 107 108 110 111 112 113 115 117 118 119
89 89 88 88 88 89 88 88 88 89 90 89 89 88 88 89 91 92 93 94 93 92 91 90 90 90 91 90 90 90 89 90 92 93 94 94 93 92 90 89 88 87 86 86 85 85 85 85 86 87 87 87 88 89 89 90 91 92 93 95 96 98 99 99 99 99 99 99 100 101 102 103 104 105 106 106 108 109 111 112 114 115 117 119 121
91 91 91 91 91 92 92 92 92 92 92 92 91 91 91 91 92 93 95 96 96 95 94 93 93 93 93 92 92 92 92 94 95 95 94 93 92 91 90 89 88 87 86 86 85 85 85 84 85 85 86 86 87 88 89 90 91 92 93 95 96 97 98 98 98 98 98 98 99 100 101 102 103 104 105 106 107 109 111 113 115 117 119 120 121
94 94 94 94 94 95 95 95 94 94 94 94 94 93 93 94 94 95 96 97 98 97 96 96 95 95 95 94 95 95 96 96 96 95 94 93 91 90 89 88 88 87 86 85 85 84 83 83 83 84 84 84 85 85 86 87 88 89 91 92 93 94 95 95 96 97 97 98 98 99 100 102 103 104 106 107 109 110 112 114 116 119 120 121 122
96 96 96 96 96 97 97 97 96 96 96 96 96 96 96 96 97 97 98 99 99 98 98 98 97 96 96 97 98 98 98 96 96 94 93 91 90 89 88 87 87 86 85 84 83 83 83 83 83 83 83 83 83 83 83 83 84 85 86 88 89 91 92 94 95 96 97 98 99 100 102 103 105 106 108 109 111 113 115 117 118 120 121 122 124
98 98 98 98 98 99 99 98 98 98 98 98 99 99 99 99 99 99 99 99 99 99 99 99 98 98 99 100 100 99 98 97 95 93 91 89 88 86 85 85 85 84 84 83 83 84 84 84 84 84 83 83 83 83 83 83 84 85 87 89 91 92 94 96 97 99 100 101 102 104 105 106 107 109 110 112 113 115 117 119 120 121 123 124 125
99 100 100 101 101 101 101 101 101 101 101 101 101 102 102 101 101 101 101 101 101 101 101 100 100 101 101 101 100 99 98 96 94 91 88 86 85 83 82 82 82 83 84 84 85 85 86 85 85 85 85 85 85 86 86 87 88 89 91 93 95 96 97 98 100 102 103 104 105 106 107 108 110 111 113 114 115 117 118 120 121 123 124 125 127
101 102 103 104 104 104 104 104 104 103 103 104 104 104 103 103 103 103 103 103 103 103 103 103 104 103 102 101 100 99 97 94 91 88 86 84 82 81 81 82 83 84 85 86 87 87 87 87 87 87 87 87 88 89 89 90 91 92 94 96 97 98 99 100 101 103 105 106 107 108 109 110 112 113 115 116 117 118 120 121 123 124 125 126 127
102 104 105 106 107 107 107 107 106 106 106 106 106 106 106 106 106 106 106 105 105 106 106 106 106 104 103 101 99 97 94 91 89 86 84 83 83 83 83 84 85 86 87 88 88 89 90 90 90 90 90 90 91 91 92 93 94 94 96 97 99 99 101 102 103 105 107 108 109 110 111 113 114 115 117 118 119 120 121 123 124 125 126 127 128
104 105 106 108 108 109 109 109 109 108 109 108 108 108 108 108 108 108 108 108 108 108 108 107 105 104 103 100 97 94 92 90 88 86 85 85 86 86 87 88 89 89 90 90 91 92 93 93 94 94 94 94 94 94 95 96 96 96 97 99 100 101 102 104 105 107 109 110 111 113 114 115 116 118 119 120 121 122 123 124 125 126 126 127 127
107 108 108 109 110 110 111 111 111 111 111 110 110 109 109 110 110 111 111 111 110 109 107 106 104 103 101 98 95 92 90 89 88 88 88 88 90 90 91 91 92 93 93 94 94 95 96 97 97 97 98 98 98 98 99 99 99 99 100 101 102 103 105 106 108 109 111 112 114 115 116 117 119 120 121 121 122 123 124 124 125 126 126 126 126
110 110 111 111 111 112 113 113 113 113 113 112 111 111 112 112 113 113 112 110 109 107 106 104 102 100 97 95 92 91 90 90 89 90 91 92 93 94 94 95 96 96 97 98 98 99 100 100 101 101 101 102 102 103 103 103 103 104 104 105 106 107 108 109 110 112 113 115 116 117 118 119 120 121 121 122 122 123 123 124 124 125 125 125 125
112 113 113 112 112 112 113 114 114 114 115 115 114 114 114 113 112 111 110 108 106 105 103 100 98 95 93 92 91 91 91 92 92 93 94 95 96 97 97 99 99 100 101 101 102 103 103 103 104 104 104 105 106 107 107 107 107 107 108 109 110 111 112 113 114 115 116 117 118 119 120 120 120 121 121 121 121 122 122 122 123 123 124 124 124
113 113 113 113 113 113 114 114 115 115 116 115 115 114 113 111 109 108 106 105 103 101 99 97 95 93 92 92 92 93 94 95 96 96 97 98 99 100 101 102 103 103 104 105 105 106 106 106 106 106 106 107 108 109 110 110 110 110 111 112 113 114 115 116 117 118 119 119 120 120 121 120 120 120 120 120 120 120 120 121 121 122 123 123 123
114 114 114 114 114 114 113 113 113 113 113 112 112 111 109 108 106 105 103 101 100 98 97 96 95 95 95 95 96 97 98 99 99 100 100 101 102 103 104 104 105 106 107 108 108 108 108 108 108 108 109 109 110 111 111 112 112 113 114 115 116 116 117 118 119 120 120 121 121 121 121 120 119 119 119 119 119 119 119 120 120 121 121 122 122
112 112 111 111 111 110 109 109 108 108 108 108 107 107 106 105 104 103 102 100 99 98 98 98 98 98 98 99 100 100 101 102 102 103 103 104 105 106 107 107 108 109 110 110 111 111 111 111 111 111 111 112 112 112 113 114 115 116 117 118 118 119 120 120 120 121 121 121 120 120 119 119 118 118 118 118 118 118 118 119 119 120 120 121 121
108 107 107 106 106 105 104 104 103 103 103 102 103 103 103 103 102 102 101 100 100 100 100 100 101 101 102 103 103 104 105 105 105 106 106 107 107 109 110 110 111 112 113 113 113 113 113 113 113 113 114 114 114 115 115 116 117 118 119 120 120 121 121 121 121 120 120 119 118 118 117 117 117 117 117 117 117 118 118 118 119 119 120 120 121
103 102 101 101 100 100 99 99 98 98 98 99 100 100 101 101 101 102 102 102 102 102 103 104 104 105 106 107 107 108 108 108 109 109 110 110 111 112 113 114 114 115 115 115 115 114 114 114 114 115 116 116 117 117 117 118 119 119 120 120 121 121 121 120 119 119 118 118 117 116 116 116 116 116 117 117 117 117 118 118 119 119 120 120 121
98 98 97 97 97 97 97 96 96 97 97 98 99 99 100 101 102 103 103 104 105 105 106 107 108 109 110 111 112 112 112 112 112 113 113 113 114 115 116 117 118 118 117 116 116 116 116 116 116 117 118 118 119 119 119 120 120 120 120 120 120 119 119 118 118 117 117 117 116 116 116 116 116 116 117 117 117 117 118 118 119 120 120 121 122
98 98 98 98 98 98 98 98 98 99 99 100 101 101 102 103 104 105 105 106 107 108 109 110 111 112 114 115 115 115 115 116 116 116 117 118 118 119 119 119 119 119 118 117 117 117 117 118 119 119 119 120 120 120 120 120 120 120 119 119 118 117 117 116 116 116 116 116 116 116 116 116 116 116 117 117 117 118 118 119 120 121 121 122 123
101 101 101 101 101 101 101 102 102 103 103 104 105 105 106 107 108 108 109 109 110 112 112 114 115 116 117 119 119 119 119 119 120 120 121 121 121 121 121 120 120 119 118 118 118 118 119 119 120 120 120 120 120 119 119 119 118 118 117 117 116 116 115 115 115 115 115 115 116 116 116 116 116 116 116 117 117 118 119 119 120 121 122 122 121
104 105 105 105 105 106 106 107 108 108 109 109 110 111 112 112 113 114 114 115 115 116 117 118 119 120 121 122 122 122 122 123 123 123 123 123 122 121 121 120 120 119 119 119 119 119 119 120 120 119 119 119 118 117 117 116 116 116 115 115 114 114 114 114 114 114 114 115 115 115 115 115 115 116 116 117 117 118 118 119 120 120 120 119 119
108 108 109 110 111 112 113 114 115 116 116 117 117 118 118 119 119 119 119 120 120 120 120 121 121 122 123 124 124 124 124 124 123 123 123 122 121 121 120 120 119 119 119 119 119 119 118 118 118 117 117 116 116 115 114 114 114 114 113 113 113 113 113 113 113 113 113 113 114 114 114 115 115 115 116 116 117 117 117 118 118 118 118 117 118
115 116 117 118 119 120 121 121 122 122 123 123 123 123 123 123 123 122 122 122 121 121 121 121 122 122 123 124 124 125 124 123 122 122 121 121 121 120 120 119 119 118 118 117 117 116 116 115 115 115 114 114 114 113 113 112 112 112 111 111 111 111 111 112 112 112 112 112 113 113 113 114 114 114 115 115 115 116 116 116 116 117 117 117 117
122 124 124 125 125 125 125 124 124 125 125 125 125 125 124 123 123 122 121 121 120 120 120 120 121 121 122 124 125 125 124 122 121 120 120 120 120 119 118 117 117 116 116 115 114 114 113 113 113 113 112 112 112 111 111 110 110 109 109 109 109 110 110 110 111 111 111 111 111 112 112 112 113 113 113 114 114 115 115 116 116 117 117 117 117
127 127 126 125 125 124 124 124 123 123 123 123 123 123 122 121 121 120 119 119 119 119 119 119 120 121 122 124 125 125 123 120 119 119 119 118 117 116 115 115 114 114 114 113 113 112 112 112 111 111 110 110 109 108 108 107 107 107 107 107 107 108 108 109 109 109 109 110 110 110 110 111 111 112 113 113 114 115 115 116 116 117 117 117 117
125 124 122 121 121 121 121 120 120 120 120 120 120 120 119 119 118 118 117 117 117 118 118 119 120 121 122 123 124 124 121 118 116 115 115 114 113 113 113 112 112 112 112 111 111 110 110 109 108 108 107 106 105 105 105 104 105 105 105 105 105 106 106 107 107 107 108 108 108 109 110 111 112 112 113 114 115 115 116 116 116 117 117 117 117
121 120 119 118 118 117 117 117 117 117 117 117 117 117 117 116 116 115 114 114 114 115 115 117 119 120 120 121 121 121 119 117 114 112 111 110 110 110 110 109 109 109 109 108 108 107 106 105 104 104 103 103 102 102 102 102 102 103 103 103 103 104 104 105 105 106 107 108 109 110 111 112 113 113 114 115 115 116 116 116 117 117 117 116 116
119 118 117 116 115 114 114 113 113 113 113 113 113 113 113 112 112 111 110 109 109 110 112 114 116 118 118 118 118 117 116 115 112 110 109 107 107 106 106 105 105 105 104 104 103 103 102 102 101 101 100 100 100 100 100 100 100 101 101 102 103 103 104 105 106 107 108 109 110 110 111 112 113 114 115 115 115 116 116 116 116 116 115 115 115
116 115 114 113 112 111 110 110 110 109 109 110 110 110 109 109 108 108 107 106 106 106 108 111 113 115 116 115 114 113 112 110 109 108 107 105 104 103 102 102 102 101 101 100 100 100 99 99 99 99 98 98 98 99 99 100 100 101 101 102 103 104 105 105 107 108 109 110 110 111 112 113 114 114 115 115 115 115 115 115 115 114 114 113 113
113 112 111 109 108 108 108 107 107 107 107 107 107 106 106 105 105 104 104 104 104 104 105 106 108 110 111 111 110 108 107 106 106 105 104 102 101 100 99 99 99 98 98 98 98 98 98 98 98 98 98 98 98 99 100 100 101 102 103 103 104 105 105 106 107 108 109 110 111 111 112 113 113 114 114 114 114 114 114 114 113 113 112 112 111
109 108 107 106 105 104 105 105 105 104 104 103 103 103 102 101 101 100 100 101 101 101 101 102 103 105 106 106 105 103 102 102 101 101 100 99 98 97 96 96 96 96 96 97 97 97 98 97 97 98 98 99 99 100 100 101 102 103 104 104 105 105 106 107 108 108 109 109 110 111 111 112 113 113 113 114 113 113 113 112 112 111 111 110 110
105 104 103 102 101 101 101 101 101 101 100 100 100 99 99 98 97 97 97 98 98 98 98 98 99 101 102 102 101 99 98 98 97 97 96 96 95 95 94 94 94 94 95 96 96 97 97 98 98 98 99 99 100 101 101 102 103 104 104 105 105 106 106 107 107 108 108 109 109 110 111 112 112 113 113 113 113 112 112 111 111 110 110 109 109
101 101 100 99 98 98 98 98 98 98 98 97 97 97 96 95 94 94 94 95 96 96 97 97 97 98 99 99 97 96 95 95 94 94 93 93 93 93 93 93 94 94 94 95 96 97 97 98 99 99 99 100 100 101 101 102 103 103 104 104 105 105 106 106 107 107 108 109 109 110 111 111 112 112 113 112 112 111 111 110 109 108 108 108 108
99 98 97 96 95 95 95 95 95 95 95 95 95 95 94 93 92 92 93 93 94 95 95 95 95 96 97 96 95 93 92 92 92 92 92 92 92 92 93 93 94 94 94 95 96 97 97 98 99 99 99 100 100 101 101 101 102 102 103 104 104 105 106 106 107 107 108 109 109 110 111 111 111 112 112 111 111 110 109 109 108 107 107 107 107
96 95 94 93 92 92 92 92 93 93 93 93 93 93 92 91 91 91 92 93 94 95 94 94 94 95 95 94 92 91 90 90 90 90 91 91 92 92 93 93 94 94 95 95 96 97 97 98 98 99 100 100 100 100 101 101 102 102 103 103 104 105 105 106 106 107 107 108 109 110 110 111 111 111 110 110 109 108 108 107 107 107 107 107 106
94 93 91 91 90 90 90 91 91 90 91 91 91 91 90 90 90 90 91 92 93 94 93 93 94 94 93 92 90 89 89 89 89 89 89 90 91 91 92 93 94 95 96 96 96 97 98 98 98 99 99 100 100 100 101 101 102 102 102 103 103 104 105 105 106 106 107 108 109 109 110 110 110 110 109 108 107 107 107 107 107 107 107 106 106
91 90 90 89 89 89 89 89 89 89 90 90 90 90 89 89 89 90 90 91 92 92 93 93 93 93 92 91 90 89 88 88 89 89 89 90 90 91 92 93 94 95 96 97 97 98 98 98 98 99 99 99 100 100 100 101 101 101 102 102 103 104 105 105 106 107 107 108 109 109 110 109 109 108 108 107 107 107 107 107 107 106 106 105 105
88 88 88 88 87 88 88 88 89 89 89 90 89 89 88 88 88 89 89 90 90 91 91 92 92 92 92 91 90 88 88 88 88 89 90 90 90 91 92 93 94 95 96 97 97 98 98 98 98 98 98 99 99 99 100 100 101 101 102 103 104 105 106 106 107 108 108 109 109 109 109 108 108 108 108 107 107 106 107 106 106 105 104 104 103
85 86 86 86 86 86 87 87 87 88 89 89 89 88 88 87 87 87 88 88 89 89 90 91 91 91 91 90 89 88 88 88 88 88 89 90 90 91 92 93 94 95 96 97 97 97 97 97 97 98 98 98 99 99 100 100 101 102 103 104 105 106 107 108 108 109 109 110 110 109 109 108 108 108 108 107 106 105 105 104 104 103 102 101 99
84 84 84 84 85 85 85 86 86 87 88 89 89 88 87 87 86 86 87 87 88 88 88 89 89 90 90 90 89 88 88 88 88 88 89 89 90 91 92 93 93 94 95 95 96 96 96 97 97 97 98 98 99 99 100 101 102 103 104 105 106 107 109 109 110 110 110 110 110 110 109 108 107 107 106 105 104 103 103 102 101 100 98 97 95
83 84 83 84 84 84 84 85 86 87 88 88 88 87 87 86 86 86 86 87 87 88 88 88 88 89 89 89 89 88 88 88 88 88 89 89 90 90 91 92 92 93 93 94 94 95 95 96 96 97 97 98 99 100 101 102 103 104 106 107 108 109 110 110 110 110 110 110 109 108 107 106 105 104 104 103 102 101 100 99 97 95 94 92 90
84 84 84 83 83 84 84 84 85 86 86 87 86 87 87 86 86 85 86 86 87 87 88 88 88 88 89 89 89 89 89 89 89 89 89 90 90 91 91 92 92 93 93 93 94 94 95 95 96 97 98 99 100 101 102 103 105 106 107 109 110 110 110 110 109 109 108 107 106 105 104 103 103 102 101 100 99 98 96 95 93 91 89 87 85
85 85 84 83 83 84 84 84 84 85 85 86 86 86 86 86 86 85 85 86 86 87 87 87 88 88 89 89 89 90 90 90 90 90 90 91 91 91 92 92 93 93 93 94 94 95 96 96 97 98 99 100 101 102 104 105 106 108 109 109 110 109 109 108 107 106 105 104 103 102 101 101 100 99 98 97 95 94 92 90 88 87 85 83 82
85 85 84 83 83 84 85 85 86 86 85 86 87 87 87 86 86 86 86 86 86 87 87 88 89 89 89 89 90 90 90 91 91 91 91 92 92 92 92 93 93 94 94 94 95 96 96 97 98 99 100 101 103 104 105 107 107 108 108 108 108 108 107 106 104 103 102 101 100 99 99 98 97 96 95 93 91 90 88 86 85 83 82 80 79
85 84 84 84 83 84 84 85 86 86 86 87 87 88 87 87 86 86 87 87 87 88 88 88 89 89 89 90 90 90 91 91 92 92 92 93 93 93 93 93 94 94 95 95 96 96 97 98 99 100 102 103 105 106 106 107 107 107 106 106 105 104 103 102 101 100 99 98 98 97 96 95 94 93 91 90 88 86 85 83 82 80 79 78 77
85 85 84 84 84 84 85 85 86 87 87 88 88 88 88 87 87 87 87 88 88 89 89 89 89 89 90 90 90 91 91 92 93 93 93 93 93 93 93 94 94 95 95 95 96 97 98 99 100 102 103 105 105 105 105 105 104 104 103 102 101 100 100 99 99 98 97 96 96 95 94 93 91 90 88 87 85 84 82 81 79 78 77 76 75
85 85 84 84 84 84 85 86 86 87 88 88 89 89 89 89 88 88 88 89 89 89 89 89 89 90 90 91 91 92 92 93 93 93 93 93 93 93 93 94 94 94 95 95 96 97 99 100 102 104 104 104 104 104 103 102 101 100 100 99 98 98 98 97 96 96 95 94 93 93 92 91 89 87 86 84 83 81 80 79 78 77 76 75 74
Wind_Direction
290 290 290 290 290 289 289 290 289 289 290 290 289 290 290 292 293 294 295 295 296 297 299 300 299 299 298 297 297 297 298 298 298 298 298 297 297 297 297 297 297 297 297 297 296 296 295 295 295 294 294 293 293 292 292 291 291 291 291 291 291 291 292 292 293 293 294 294 295 296 297 297 298 298 298 299 299 299 298 298 299 299 299 299 299
288 288 289 288 288 288 288 288 288 288 289 289 289 290 291 292 293 293 294 295 296 297 298 299 298 298 297 297 297 297 297 298 298 298 298 297 297 297 297 297 297 297 296 296 296 295 295 295 295 294 294 294 293 292 292 291 291 291 291 291 291 291 292 292 293 293 294 295 296 297 297 297 297 298 298 298 298 298 298 298 298 298 298 298 298
286 287 287 288 287 287 288 288 288 288 289 289 289 290 292 292 292 293 293 294 295 296 297 297 297 296 296 296 296 297 297 298 298 298 298 297 297 297 297 297 296 296 296 295 295 295 295 295 294 294 294 293 293 292 291 291 291 291 291 291 292 292 293 293 294 294 295 296 296 296 296 297 297 297 297 297 297 297 297 298 298 298 298 298 298
286 287 287 287 287 288 288 288 288 288 288 289 290 290 291 292 292 292 293 293 294 295 295 295 295 295 295 295 296 296 296 297 297 297 297 297 297 297 297 297 296 296 295 295 295 295 294 294 294 294 293 293 292 292 292 292 292 292 292 292 293 293 293 293 294 294 295 295 295 295 296 296 296 296 297 297 297 297 297 297 297 297 298 298 299
286 287 287 287 287 287 287 288 288 288 288 289 290 290 291 291 291 291 292 292 293 294 294 294 294 294 295 295 296 296 296 296 297 297 297 297 297 297 297 296 296 295 295 295 295 295 294 294 294 294 294 294 294 293 293 293 293 293 293 293 293 293 293 293 293 294 294 294 295 295 295 296 296 296 296 296 296 296 297 297 297 298 298 299 300
286 286 286 286 287 287 287 287 287 288 288 289 290 290 290 290 290 290 291 291 292 293 293 294 294 295 295 296 296 296 296 297 297 297 297 297 297 297 296 296 295 295 295 295 295 295 294 294 294 294 294 294 294 293 293 293 293 292 292 292 292 292 293 293 293 294 294 294 294 295 295 295 295 295 295 296 296 297 297 298 298 298 299 300 301
284 285 285 285 286 286 286 286 287 287 288 288 289 289 289 289 289 289 290 291 292 292 293 293 294 295 295 295 295 296 297 297 297 297 297 297 296 296 296 295 295 295 295 295 295 295 294 294 294 294 294 294 294 293 293 293 293 293 292 292 292 292 292 293 294 294 294 294 294 294 294 295 295 295 296 296 296 297 297 298 298 298 299 300 301
283 283 284 284 284 284 284 285 286 286 286 287 287 287 287 288 288 289 290 290 291 292 292 293 294 295 295 295 296 296 297 297 297 296 296 296 295 295 295 295 295 294 295 295 294 294 294 295 295 295 295 295 294 294 293 293 293 293 293 293 292 293 293 293 294 294 294 294 294 294 294 294 295 295 296 296 296 297 297 297 298 298 299 300 300
283 283 283 283 282 282 283 283 284 284 285 285 286 286 287 288 288 289 289 290 291 291 292 293 294 294 294 295 296 296 296 296 295 295 295 294 294 294 294 293 293 294 294 294 294 294 294 295 296 295 295 295 294 293 293 293 293 293 293 292 292 293 293 293 293 293 293 293 293 294 294 295 295 295 295 296 296 297 297 297 298 298 299 299 300
282 282 282 282 282 282 283 283 284 284 285 286 286 287 288 288 289 289 289 290 291 291 292 293 293 294 294 295 295 295 295 295 294 294 293 293 292 292 292 292 292 292 293 293 294 295 295 296 297 296 296 295 294 293 292 292 292 292 292 292 292 292 292 292 293 293 293 294 294 295 295 296 296 296 296 296 296 297 297 297 298 298 298 299 299
279 280 281 281 282 282 283 284 284 285 286 286 287 287 288 288 289 289 289 290 290 291 292 292 293 293 294 294 294 294 294 293 293 292 292 291 290 290 290 290 290 291 292 293 294 295 296 297 297 297 296 296 294 293 293 292 291 291 291 291 292 292 293 293 294 294 295 295 296 296 296 296 296 296 296 296 296 297 297 297 298 298 298 299 299
278 279 280 281 281 282 283 284 284 285 285 286 286 287 287 287 288 288 289 289 290 291 291 292 292 293 293 293 293 293 292 291 291 290 289 289 289 288 289 289 290 291 292 293 294 295 296 297 297 297 297 296 295 294 293 292 292 292 292 293 293 294 294 295 295 295 295 296 296 296 296 296 296 296 296 296 297 297 297 297 298 298 298 298 299
278 279 280 280 281 282 283 284 284 285 285 285 286 286 287 287 287 288 288 289 290 290 291 291 292 292 292 292 291 291 290 289 288 288 288 287 288 288 289 289 290 291 292 293 294 295 296 296 297 297 297 296 296 295 294 293 293 294 294 294 295 295 295 295 295 295 295 296 296 296 296 296 296 296 296 296 297 297 297 297 297 298 298 298 298
279 279 280 280 281 282 282 283 284 284 285 285 286 286 287 287 287 288 288 289 290 290 290 290 290 290 290 290 289 288 287 287 287 287 287 287 288 288 289 290 291 292 293 294 295 295 296 296 296 296 296 296 296 295 295 295 295 295 295 295 295 295 295 295 295 295 295 295 295 295 295 295 296 296 296 296 296 296 297 297 297 297 298 298 298
279 279 279 280 281 281 282 283 283 284 284 285 285 285 286 286 287 287 288 289 289 289 289 289 288 288 288 287 287 286 286 286 286 286 287 287 288 289 290 291 292 292 293 294 295 295 296 296 296 296 296 297 296 296 296 296 296 296 296 296 295 295 295 295 295 295 295 295 295 295 295 295 295 295 296 296 296 296 296 297 297 297 297 298 298
278 279 279 280 280 281 281 282 283 283 283 284 284 284 285 285 286 286 287 287 287 287 287 287 286 286 285 285 285 285 285 285 286 286 287 288 289 289 290 291 292 293 294 295 295 296 296 296 297 297 297 297 297 297 296 296 296 296 296 295 295 295 295 295 295 294 294 294 294 295 295 295 295 295 295 296 296 296 296 297 297 297 297 298 298
278 278 279 279 280 280 280 281 281 282 283 283 284 284 285 285 285 285 285 285 285 285 284 284 283 283 282 282 282 283 284 285 285 286 287 288 289 290 291 292 293 294 295 295 296 296 296 297 297 297 297 296 296 296 296 295 295 295 295 294 294 294 294 294 294 294 294 294 295 295 295 295 295 295 295 296 296 296 296 297 297 297 297 297 298
278 278 279 279 279 280 280 281 281 282 283 283 284 284 284 284 284 284 283 283 283 282 282 282 281 281 281 281 281 282 282 283 285 286 287 288 289 290 291 292 293 294 295 295 295 296 296 296 296 296 295 295 294 294 294 294 294 294 294 294 294 294 294 294 294 294 295 295 295 295 295 295 295 295 295 295 296 296 296 296 296 296 297 297 297
278 278 278 279 279 280 280 281 281 282 282 282 283 283 283 283 282 282 282 282 281 281 281 280 280 280 281 281 281 282 282 283 284 285 287 288 289 291 292 293 294 294 295 295 295 295 295 295 295 294 294 294 293 293 293 293 293 293 293 293 294 294 294 294 294 294 294 294 294 294 294 294 295 295 295 295 296 296 296 296 296 296 296 296 296
278 278 278 279 279 279 279 279 280 280 280 280 280 281 281 281 281 281 281 281 281 281 280 280 281 281 281 281 282 282 283 284 285 286 287 289 290 291 292 293 294 294 294 294 294 294 294 294 294 293 293 293 293 293 293 293 293 293 293 293 293 293 293 293 293 293 293 293 293 294 294 294 294 295 295 295 295 295 295 295 295 295 295 295 295
277 277 277 277 277 277 277 278 278 278 278 278 278 279 279 279 279 279 279 279 280 280 280 280 281 281 281 282 282 283 284 285 286 287 288 290 291 292 292 293 293 293 293 294 293 293 293 293 293 292 292 292 292 292 292 292 292 292 292 292 292 292 292 293 293 293 293 293 293 293 294 294 294 295 295 295 295 294 294 294 294 294 294 295 295
275 275 275 276 276 276 276 276 276 276 276 276 277 277 277 277 277 278 278 278 279 279 279 280 280 281 281 282 283 283 284 285 287 288 289 290 291 291 292 292 292 292 293 292 292 292 292 291 291 291 291 291 291 291 291 291 291 291 291 291 291 292 292 292 292 292 292 293 293 293 294 294 294 294 294 294 294 294 294 294 294 294 294 294 295
274 274 274 274 274 275 275 275 275 276 276 276 277 277 277 277 277 278 278 278 279 280 280 281 282 282 283 283 284 284 285 287 288 289 289 290 290 290 291 291 291 291 291 291 291 291 290 290 290 290 290 290 290 290 290 290 291 291 291 291 291 291 291 292 292 292 292 293 293 293 293 293 293 293 293 293 293 293 293 293 293 294 294 295 295
273 273 273 274 274 275 275 276 276 277 278 278 279 279 279 279 280 280 280 281 282 282 283 284 284 285 285 285 285 286 287 287 288 288 289 289 289 289 290 290 290 290 290 290 290 289 289 289 289 289 289 289 290 290 290 290 290 291 291 291 291 291 291 291 292 292 292 292 292 292 292 293 292 292 293 293 293 293 293 293 294 294 295 296 297
274 274 275 276 276 277 278 279 280 280 281 282 282 283 283 283 284 284 284 285 285 285 286 286 286 286 286 286 286 286 286 287 287 287 287 288 288 289 289 289 289 289 289 289 288 288 288 288 288 289 289 289 289 289 290 290 290 290 290 291 291 291 291 291 291 291 291 291 292 292 292 292 292 292 292 292 292 293 293 293 294 295 296 297 299
278 279 280 280 281 282 282 283 283 284 284 285 285 285 286 286 286 286 286 286 286 286 286 286 286 286 285 285 285 285 285 285 286 286 286 287 287 287 288 288 288 288 288 288 288 288 288 288 288 288 289 289 289 289 289 289 289 290 290 290 290 290 291 291 291 291 291 291 291 291 291 291 292 292 292 292 292 293 293 294 295 296 298 299 300
283 284 284 284 284 284 284 285 285 285 285 285 285 286 286 286 286 286 286 286 286 285 285 285 284 284 284 284 284 284 284 284 285 285 286 286 287 287 287 287 287 287 287 287 287 287 288 288 288 288 288 288 288 288 289 289 289 289 290 290 290 290 290 290 290 290 290 290 290 290 290 290 291 291 292 292 293 294 295 296 297 298 299 300 300
284 284 284 284 284 284 283 283 283 283 284 284 284 284 284 284 284 284 284 284 284 284 284 283 283 283 283 283 283 283 283 284 284 285 285 286 286 286 287 287 287 287 287 287 287 287 287 287 287 287 287 288 288 288 288 289 289 289 289 289 289 289 289 289 289 289 289 289 289 289 290 291 291 292 293 294 295 296 297 298 298 299 299 300 300
283 283 283 283 282 282 282 282 282 282 282 282 283 283 283 283 283 283 283 283 283 283 282 282 282 282 282 282 282 282 283 283 284 284 285 285 285 286 286 286 286 286 286 286 286 286 286 287 287 287 287 288 288 288 288 288 288 288 288 288 288 288 288 288 288 288 289 289 290 291 292 292 293 294 295 296 297 297 298 298 299 299 300 300 300
282 281 281 281 281 281 281 281 281 281 281 281 281 281 281 281 281 281 281 281 281 281 282 282 282 281 281 281 282 282 283 283 283 284 284 284 285 285 285 285 285 286 286 286 286 286 286 286 287 287 287 287 287 287 287 287 287 287 287 287 287 287 287 288 289 289 290 291 292 293 294 294 295 296 296 297 297 298 298 298 299 299 299 300 301
281 281 280 280 280 280 280 280 280 280 280 280 280 279 279 279 279 279 279 280 280 281 281 281 281 281 281 281 282 283 283 284 284 284 284 284 284 284 284 284 285 285 285 285 285 286 286 286 286 286 286 286 286 286 286 286 286 286 286 287 287 288 289 290 291 291 292 293 294 295 295 295 296 296 297 297 297 298 298 298 299 299 300 300 301
280 280 280 280 280 280 279 279 279 279 279 279 279 279 279 279 279 279 279 279 280 280 280 280 280 281 281 281 282 283 284 284 285 285 284 284 284 284 284 284 284 284 285 285 285 286 286 286 286 286 286 286 286 286 286 287 287 287 288 289 290 290 291 292 293 293 294 294 295 295 295 296 296 296 296 297 297 297 298 298 298 299 300 301 302
280 280 280 280 280 280 280 280 279 279 279 279 279 279 279 279 280 280 280 280 280 280 279 280 280 280 281 282 282 283 284 285 285 285 285 285 286 286 286 286 286 286 286 287 287 287 287 287 287 287 287 288 288 288 289 289 289 290 291 291 292 292 293 293 293 294 294 294 295 295 295 295 296 296 296 296 297 297 297 298 299 300 301 302 303
280 280 280 281 281 280 280 280 280 280 279 279 279 280 280 280 280 280 281 280 280 279 279 279 279 280 281 281 282 283 284 284 285 285 286 286 286 287 287 287 287 288 288 288 288 288 288 288 288 289 289 289 290 290 290 291 291 291 291 292 292 292 293 293 293 293 293 294 294 294 295 295 295 295 296 296 297 297 298 299 300 301 302 303 304
281 281 281 281 281 281 281 281 281 281 281 281 281 281 281 281 281 280 280 280 280 279 279 279 279 279 280 281 282 282 283 284 284 285 286 286 286 287 287 287 287 288 288 288 288 288 288 289 289 290 290 290 291 291 291 291 291 291 292 292 292 292 292 292 292 292 293 293 294 294 295 295 295 296 296 297 297 298 299 300 301 302 303 303 303
281 282 282 282 282 281 281 281 281 281 281 281 281 281 281 281 281 281 281 280 280 280 280 279 279 279 280 281 282 283 284 284 285 285 286 287 287 287 287 287 287 287 287 287 288 288 289 290 290 290 290 291 291 291 291 291 291 291 291 291 291 291 291 292 292 293 294 294 295 295 295 296 296 296 297 297 298 299 299 300 302 302 303 303 302
282 282 282 282 282 281 281 281 281 281 281 281 281 281 281 281 281 281 281 281 281 280 280 280 280 281 281 282 283 284 285 285 286 286 286 287 287 287 287 287 287 287 288 288 289 289 289 290 290 290 290 290 290 290 290 290 290 290 291 291 291 291 292 293 293 294 295 295 295 295 295 296 296 296 297 297 298 299 300 301 302 302 302 302 302
282 282 281 281 281 281 280 280 280 280 280 280 280 280 280 281 281 281 280 280 280 280 280 281 281 282 282 283 284 285 285 286 286 286 286 286 286 287 287 287 288 288 288 288 289 289 289 289 290 290 290 290 290 290 290 290 291 291 291 291 292 292 293 294 294 294 295 295 295 295 295 295 295 296 297 298 299 300 301 301 302 302 302 302 302
282 281 281 281 280 280 279 279 279 279 279 279 279 279 279 279 280 280 280 280 280 280 281 281 281 282 282 283 284 285 285 285 285 286 286 287 287 287 287 288 288 288 288 288 288 288 289 289 289 289 290 290 290 291 291 291 291 291 292 292 293 293 293 294 294 294 294 294 294 294 294 295 295 296 297 299 300 301 301 302 302 302 302 302 302
282 282 281 281 280 280 280 279 279 279 278 278 278 278 278 279 278 278 279 279 279 280 281 281 281 282 282 283 284 284 285 285 285 285 286 286 286 287 287 287 287 288 288 288 288 288 288 289 289 290 290 291 291 291 291 291 292 292 292 292 292 293 293 293 293 293 294 294 294 294 294 295 296 298 299 300 301 301 302 302 302 301 301 302 302
282 282 281 281 281 280 280 280 279 279 279 278 278 279 279 279 279 279 279 279 279 280 281 281 282 282 283 283 284 284 285 285 285 285 285 286 286 286 286 286 286 287 287 287 288 288 289 289 290 290 291 291 291 291 291 292 292 292 292 292 293 293 293 293 293 293 293 293 293 294 296 297 299 300 301 301 302 302 301 301 301 301 301 301 301
281 281 280 280 280 280 280 279 279 279 279 279 279 279 279 279 279 279 279 279 280 280 281 281 282 282 283 284 284 285 285 285 285 285 285 285 285 285 286 286 286 286 287 287 288 288 289 290 290 291 291 291 291 292 292 292 292 292 293 293 293 292 292 292 292 293 293 294 295 297 298 300 300 301 301 301 301 301 300 300 300 300 300 300 301
279 279 279 279 279 279 279 279 279 279 279 279 279 279 279 279 279 279 279 279 280 280 280 281 282 282 283 284 284 284 284 284 284 284 284 284 285 285 285 285 285 286 287 287 288 289 290 290 291 291 292 292 292 292 292 292 292 292 292 292 292 292 292 292 293 294 295 296 298 299 300 301 301 301 301 300 300 299 299 299 299 299 300 300 300
278 278 278 278 278 278 278 279 279 278 279 279 279 279 280 280 280 280 280 280 280 280 280 281 282 282 283 284 284 284 284 284 284 284 284 284 284 285 285 286 286 287 287 288 289 290 290 291 292 292 292 292 292 292 292 292 292 292 292 292 292 292 293 294 295 296 297 298 299 300 300 300 300 299 299 298 298 298 298 298 299 299 299 300 300
278 277 277 277 277 277 277 278 278 278 278 279 279 280 280 280 280 280 280 281 281 281 281 281 282 282 283 284 284 284 284 285 285 285 285 285 286 286 286 287 287 288 288 289 290 290 291 291 292 292 292 292 292 292 292 292 292 292 292 292 292 293 294 295 296 297 298 299 299 299 299 298 298 297 297 297 297 298 298 298 299 299 299 300 300
277 276 276 277 277 277 277 277 277 277 278 279 279 279 280 280 280 280 280 281 281 281 282 282 282 283 283 283 284 284 285 285 286 286 286 287 287 287 288 288 288 289 290 290 291 291 291 292 292 292 292 292 291 291 291 291 291 291 291 291 292 293 295 296 297 298 298 298 298 298 297 297 297 297 297 297 298 298 298 299 299 299 300 300 301
276 276 276 276 276 277 277 277 276 277 277 278 278 278 278 279 279 279 280 280 280 280 281 281 282 282 282 283 284 284 285 285 286 286 287 287 287 287 288 289 289 290 290 291 291 291 291 291 291 291 290 290 290 290 290 290 290 290 291 292 293 295 296 297 297 297 297 297 297 297 297 297 297 297 298 298 298 298 299 299 300 300 301 301 301
275 276 276 276 276 276 276 276 277 277 277 277 277 277 278 278 278 279 279 279 279 279 280 280 281 281 282 282 283 284 284 285 285 286 286 287 287 288 288 289 289 290 290 290 290 290 289 289 289 289 289 289 289 289 289 289 290 291 293 294 295 296 297 297 297 297 296 296 297 297 297 297 298 298 298 298 299 299 299 300 300 301 301 301 301
275 275 275 275 275 275 275 276 276 276 276 276 277 277 277 278 278 278 278 278 279 279 279 280 280 281 282 282 283 283 284 284 284 285 285 286 287 287 288 288 288 288 288 288 288 288 288 288 288 288 288 288 288 288 289 291 292 294 295 296 296 296 296 296 296 296 297 297 298 298 298 298 298 298 299 299 299 300 300 301 301 301 301 301 300
275 275 275 275 275 275 275 275 275 276 276 276 276 277 277 278 278 278 278 278 278 279 279 280 280 281 281 282 282 282 283 283 283 284 285 285 286 286 286 286 287 287 287 287 288 288 288 288 288 288 287 288 289 290 292 293 294 295 296 296 296 296 296 296 297 297 298 298 299 299 299 299 299 299 299 300 300 300 301 301 301 301 300 300 300
275 275 274 274 274 274 274 275 275 275 276 276 276 277 277 277 277 277 277 278 278 279 279 280 280 281 281 281 282 282 282 283 283 284 284 285 285 285 286 286 286 287 287 288 288 288 288 288 287 287 288 289 291 293 294 295 296 296 296 296 296 296 297 297 298 298 299 299 299 299 299 299 300 300 300 300 300 301 301 300 300 300 300 300 300
Height
10679 10679 10678 10677 10676 10673 10671 10670 10668 10666 10663 10660 10656 10653 10650 10647 10644 10641 10640 10638 10638 10636 10635 10634 10632 10630 10627 10623 10618 10615 10613 10610 10607 10605 10602 10599 10595 10592 10588 10585 10582 10579 10575 10572 10568 10564 10561 10558 10555 10551 10547 10544 10541 10537 10532 10527 10523 10520 10516 10513 10509 10505 10501 10497 10493 10487 10481 10476 10472 10468 10464 10459 10454 10450 10445 10440 10435 10429 10422 10414 10408 10402 10395 10389 10382
10670 10669 10668 10668 10666 10664 10663 10661 10658 10657 10655 10652 10648 10644 10642 10639 10635 10632 10629 10628 10628 10627 10626 10624 10621 10619 10617 10613 10609 10606 10603 10599 10597 10594 10591 10588 10585 10582 10578 10575 10572 10568 10564 10561 10557 10553 10550 10546 10543 10539 10536 10534 10531 10526 10522 10517 10513 10509 10505 10502 10498 10494 10490 10485 10481 10475 10470 10466 10461 10457 10453 10448 10443 10439 10434 10430 10424 10418 10411 10404 10397 10391 10384 10377 10371
10662 10661 10659 10658 10656 10655 10654 10651 10648 10647 10645 10642 10639 10636 10633 10630 10626 10623 10619 10618 10618 10618 10618 10615 10611 10609 10606 10604 10600 10597 10593 10590 10586 10583 10580 10577 10574 10571 10567 10564 10561 10557 10554 10550 10547 10544 10540 10536 10532 10528 10525 10522 10519 10515 10511 10507 10503 10498 10494 10490 10486 10481 10476 10472 10468 10463 10458 10454 10450 10446 10441 10436 10432 10428 10423 10418 10412 10406 10399 10392 10386 10379 10372 10365 10358
10652 10651 10650 10648 10646 10644 10643 10641 10638 10636 10633 10632 10631 10628 10625 10621 10616 10613 10610 10607 10607 10607 10607 10605 10602 10599 10596 10594 10591 10588 10584 10580 10576 10572 10568 10565 10563 10559 10556 10553 10549 10546 10543 10539 10536 10533 10530 10526 10521 10517 10514 10511 10508 10504 10500 10496 10492 10488 10483 10479 10474 10468 10464 10460 10456 10452 10449 10444 10440 10435 10430 10426 10421 10417 10412 10406 10400 10394 10387 10381 10373 10366 10358 10351 10345
10641 10640 10638 10637 10635 10633 10631 10629 10628 10625 10622 10621 10620 10619 10617 10613 10608 10604 10600 10597 10596 10596 10595 10593 10591 10588 10585 10582 10580 10577 10574 10570 10566 10561 10557 10554 10551 10548 10545 10541 10538 10535 10531 10528 10525 10522 10518 10515 10510 10506 10503 10500 10497 10493 10489 10485 10481 10477 10473 10468 10462 10457 10452 10448 10445 10442 10439 10434 10430 10425 10420 10415 10410 10405 10401 10395 10389 10382 10375 10368 10360 10352 10344 10338 10331
10630 10629 10627 10626 10624 10622 10619 10618 10617 10614 10612 10611 10610 10609 10606 10603 10599 10595 10591 10588 10585 10584 10583 10581 10579 10576 10573 10570 10567 10564 10562 10559 10555 10551 10547 10543 10540 10536 10533 10530 10526 10523 10520 10517 10514 10511 10508 10505 10500 10496 10493 10490 10487 10483 10479 10475 10471 10467 10462 10458 10452 10447 10442 10437 10433 10430 10427 10423 10419 10414 10409 10404 10399 10394 10389 10384 10377 10370 10363 10355 10347 10339 10332 10326 10319
10620 10619 10617 10617 10615 10611 10608 10607 10607 10605 10603 10601 10600 10598 10596 10593 10590 10586 10582 10579 10575 10573 10572 10570 10568 10565 10561 10558 10554 10552 10550 10547 10543 10539 10536 10533 10529 10525 10521 10518 10514 10511 10509 10506 10503 10500 10497 10494 10490 10486 10482 10480 10476 10472 10468 10464 10460 10456 10451 10446 10441 10436 10431 10427 10423 10419 10415 10411 10407 10403 10398 10393 10387 10382 10376 10370 10364 10357 10350 10343 10335 10327 10321 10315 10308
10612 10611 10609 10609 10606 10602 10599 10598 10597 10595 10593 10591 10589 10587 10585 10582 10580 10576 10572 10569 10565 10562 10560 10558 10556 10554 10550 10546 10543 10540 10538 10534 10530 10528 10525 10522 10518 10514 10510 10506 10503 10500 10497 10495 10492 10488 10485 10482 10479 10475 10472 10469 10465 10461 10458 10454 10450 10445 10440 10435 10431 10426 10421 10417 10413 10408 10404 10400 10395 10391 10386 10381 10375 10369 10363 10358 10352 10346 10339 10332 10324 10316 10310 10304 10296
10602 10600 10599 10598 10594 10591 10589 10588 10587 10585 10583 10580 10577 10575 10573 10571 10569 10565 10561 10557 10554 10551 10549 10547 10545 10542 10538 10535 10531 10529 10526 10522 10519 10516 10514 10511 10507 10504 10500 10496 10493 10490 10487 10484 10481 10477 10474 10471 10468 10464 10461 10458 10454 10451 10448 10444 10440 10435 10430 10425 10421 10416 10412 10407 10402 10397 10392 10388 10383 10378 10373 10368 10363 10357 10351 10346 10341 10334 10326 10320 10314 10307 10300 10293 10285
10591 10588 10586 10584 10581 10579 10578 10576 10574 10573 10571 10568 10565 10563 10561 10559 10557 10553 10549 10546 10543 10540 10538 10536 10533 10530 10527 10524 10520 10517 10514 10510 10508 10505 10503 10500 10497 10494 10490 10486 10483 10480 10477 10474 10470 10466 10463 10460 10456 10452 10449 10446 10443 10440 10437 10433 10429 10424 10419 10414 10409 10406 10401 10396 10390 10384 10378 10374 10370 10365 10360 10355 10350 10344 10338 10333 10328 10321 10314 10308 10302 10295 10289 10282 10275
10581 10578 10575 10571 10568 10567 10565 10564 10562 10561 10558 10555 10553 10551 10549 10547 10544 10540 10537 10534 10531 10529 10527 10524 10521 10518 10515 10512 10509 10506 10502 10499 10496 10494 10491 10489 10486 10483 10481 10477 10474 10470 10467 10463 10460 10456 10452 10449 10445 10442 10438 10435 10431 10428 10424 10420 10417 10413 10407 10402 10398 10394 10390 10384 10378 10372 10366 10361 10357 10352 10347 10342 10337 10331 10325 10320 10315 10309 10302 10295 10289 10283 10276 10270 10263
10573 10569 10564 10560 10557 10555 10553 10552 10551 10549 10547 10544 10541 10540 10537 10535 10532 10528 10526 10523 10520 10518 10515 10511 10508 10505 10503 10500 10497 10494 10490 10487 10485 10483 10480 10478 10475 10473 10470 10467 10464 10460 10457 10454 10450 10446 10442 10438 10434 10431 10427 10424 10420 10417 10413 10407 10404 10400 10395 10390 10385 10381 10376 10371 10366 10360 10355 10350 10345 10340 10335 10330 10324 10318 10312 10307 10301 10295 10289 10281 10275 10269 10263 10256 10250
10561 10558 10554 10549 10547 10544 10542 10541 10539 10536 10534 10531 10529 10527 10524 10522 10518 10515 10513 10511 10508 10506 10503 10499 10496 10493 10491 10488 10486 10483 10479 10475 10473 10472 10469 10466 10463 10461 10458 10455 10452 10449 10446 10443 10440 10435 10431 10427 10423 10419 10415 10411 10408 10405 10400 10395 10392 10389 10384 10378 10373 10369 10364 10358 10353 10348 10343 10338 10333 10327 10321 10316 10310 10305 10299 10293 10288 10281 10275 10268 10261 10255 10250 10243 10236
10548 10545 10542 10538 10535 10533 10530 10529 10526 10523 10521 10518 10516 10514 10511 10507 10504 10501 10500 10498 10496 10493 10490 10487 10484 10481 10479 10476 10474 10471 10467 10464 10462 10460 10457 10454 10451 10448 10445 10442 10439 10436 10433 10430 10427 10423 10419 10415 10411 10407 10403 10399 10395 10391 10386 10382 10379 10376 10371 10367 10362 10357 10352 10347 10341 10336 10330 10325 10320 10314 10308 10303 10297 10291 10285 10279 10273 10267 10261 10254 10247 10241 10235 10229 10222
10535 10531 10529 10526 10523 10520 10518 10515 10513 10510 10508 10506 10504 10502 10498 10495 10492 10488 10486 10485 10483 10480 10477 10475 10472 10469 10467 10464 10461 10459 10455 10452 10450 10448 10445 10442 10438 10435 10432 10429 10426 10423 10420 10417 10414 10410 10406 10402 10399 10395 10390 10385 10381 10376 10372 10368 10365 10361 10356 10352 10347 10342 10338 10333 10329 10323 10317 10311 10306 10300 10295 10289 10283 10277 10271 10265 10259 10253 10247 10240 10233 10226 10220 10214 10208
10519 10516 10515 10515 10512 10508 10505 10502 10500 10497 10494 10493 10491 10489 10485 10483 10480 10477 10474 10472 10470 10467 10464 10462 10460 10458 10455 10452 10449 10446 10443 10440 10438 10436 10432 10429 10426 10423 10419 10416 10413 10410 10407 10403 10400 10396 10392 10388 10384 10380 10376 10371 10365 10361 10357 10353 10350 10346 10341 10336 10331 10327 10322 10318 10313 10308 10302 10296 10291 10286 10281 10275 10269 10263 10257 10251 10245 10239 10232 10226 10219 10212 10205 10200 10194
10504 10502 10502 10501 10498 10496 10493 10491 10488 10484 10481 10479 10477 10474 10472 10470 10467 10464 10462 10460 10457 10454 10452 10450 10448 10446 10443 10440 10437 10434 10431 10427 10426 10423 10420 10416 10414 10411 10407 10403 10400 10397 10393 10390 10386 10381 10378 10374 10370 10367 10362 10357 10351 10346 10342 10338 10335 10331 10325 10320 10316 10312 10307 10302 10297 10292 10286 10282 10277 10271 10265 10260 10254 10249 10242 10236 10231 10224 10218 10212 10204 10197 10190 10184 10179
10491 10490 10488 10486 10483 10481 10480 10477 10475 10472 10468 10465 10462 10460 10458 10456 10453 10451 10449 10447 10445 10442 10440 10438 10435 10433 10430 10428 10425 10422 10418 10415 10412 10410 10407 10403 10400 10397 10393 10391 10388 10383 10379 10375 10372 10368 10364 10361 10357 10353 10349 10344 10338 10333 10329 10325 10321 10316 10310 10305 10301 10297 10292 10286 10281 10276 10271 10266 10261 10255 10250 10245 10239 10234 10228 10222 10216 10210 10203 10197 10190 10183 10176 10169 10164
10477 10476 10474 10471 10469 10467 10465 10463 10461 10459 10455 10452 10449 10446 10444 10442 10439 10437 10435 10433 10431 10429 10427 10425 10422 10419 10417 10414 10411 10408 10405 10402 10399 10396 10393 10390 10387 10383 10379 10377 10374 10369 10365 10361 10357 10354 10350 10347 10343 10338 10333 10329 10325 10321 10316 10312 10307 10301 10295 10290 10286 10281 10276 10271 10266 10262 10257 10252 10246 10241 10236 10230 10224 10219 10213 10207 10202 10195 10189 10182 10176 10169 10162 10156 10149
10462 10460 10459 10457 10455 10453 10451 10449 10447 10445 10443 10440 10437 10434 10432 10428 10426 10424 10421 10419 10417 10415 10413 10411 10408 10405 10402 10400 10397 10394 10391 10388 10385 10382 10379 10376 10374 10370 10365 10363 10359 10355 10351 10348 10344 10340 10336 10332 10328 10323 10318 10314 10310 10306 10302 10297 10292 10286 10281 10276 10271 10265 10261 10256 10252 10248 10242 10237 10232 10227 10221 10215 10209 10204 10198 10192 10187 10181 10174 10168 10161 10155 10149 10143 10136
10447 10445 10444 10443 10441 10439 10437 10435 10433 10431 10429 10427 10425 10422 10419 10416 10414 10411 10409 10406 10404 10402 10399 10397 10394 10391 10388 10384 10381 10378 10375 10373 10371 10368 10365 10363 10360 10355 10351 10348 10344 10340 10337 10334 10330 10326 10322 10318 10313 10308 10304 10300 10296 10291 10287 10281 10277 10272 10267 10262 10256 10251 10247 10242 10237 10232 10227 10222 10217 10211 10206 10201 10195 10189 10184 10178 10172 10166 10160 10154 10147 10142 10136 10129 10123
10433 10432 10430 10429 10427 10425 10423 10421 10419 10417 10415 10413 10411 10409 10406 10403 10401 10398 10395 10393 10390 10388 10385 10382 10379 10376 10372 10368 10365 10361 10359 10357 10355 10352 10349 10347 10345 10340 10335 10333 10329 10326 10323 10319 10315 10311 10307 10303 10298 10293 10289 10285 10280 10276 10271 10265 10261 10257 10252 10247 10242 10237 10232 10227 10222 10217 10212 10206 10201 10196 10191 10186 10180 10175 10169 10164 10158 10152 10146 10139 10133 10127 10122 10116 10109
10420 10419 10417 10415 10413 10411 10409 10407 10405 10403 10400 10398 10396 10394 10391 10388 10386 10383 10381 10378 10375 10372 10369 10366 10363 10359 10355 10351 10347 10345 10343 10341 10339 10336 10333 10330 10328 10324 10321 10318 10315 10311 10308 10304 10300 10296 10292 10287 10282 10278 10274 10270 10265 10260 10255 10250 10245 10241 10236 10231 10227 10222 10217 10212 10207 10202 10196 10191 10186 10181 10176 10171 10166 10161 10155 10150 10144 10138 10131 10125 10118 10112 10107 10102 10096
10406 10404 10402 10401 10399 10396 10394 10392 10389 10387 10384 10381 10379 10377 10374 10371 10368 10366 10364 10361 10358 10355 10352 10349 10345 10341 10337 10333 10330 10328 10326 10324 10322 10319 10317 10314 10311 10308 10306 10303 10299 10296 10293 10289 10285 10280 10276 10271 10266 10262 10258 10254 10249 10244 10240 10235 10230 10225 10220 10216 10211 10207 10202 10197 10192 10187 10182 10177 10172 10167 10162 10157 10152 10147 10141 10135 10130 10123 10117 10111 10104 10098 10093 10087 10081
10390 10388 10386 10384 10382 10380 10377 10375 10372 10369 10366 10364 10361 10358 10356 10353 10350 10348 10346 10343 10341 10338 10335 10332 10328 10323 10319 10315 10312 10310 10309 10307 10305 10302 10300 10298 10295 10293 10290 10287 10283 10280 10277 10273 10268 10264 10259 10255 10250 10246 10242 10238 10233 10229 10224 10220 10215 10210 10205 10201 10196 10192 10187 10182 10177 10172 10167 10163 10158 10153 10148 10143 10138 10132 10127 10121 10115 10109 10103 10097 10090 10084 10079 10073 10067
10372 10370 10368 10367 10364 10362 10360 10357 10354 10351 10348 10346 10343 10340 10338 10335 10333 10330 10328 10326 10324 10321 10318 10315 10311 10307 10303 10298 10295 10293 10292 10290 10289 10287 10284 10282 10280 10277 10274 10270 10267 10264 10260 10256 10252 10247 10243 10239 10235 10231 10226 10222 10218 10213 10209 10205 10200 10196 10191 10187 10182 10177 10173 10168 10163 10158 10153 10149 10144 10139 10134 10129 10123 10118 10112 10106 10100 10095 10089 10083 10076 10070 10064 10058 10052
10355 10353 10351 10349 10347 10344 10342 10340 10337 10334 10331 10329 10326 10324 10321 10319 10316 10314 10311 10309 10307 10304 10301 10298 10295 10290 10286 10282 10279 10276 10275 10274 10273 10271 10268 10266 10263 10260 10257 10254 10250 10247 10243 10239 10236 10232 10228 10224 10219 10215 10211 10207 10202 10198 10194 10190 10185 10181 10177 10172 10167 10163 10158 10153 10148 10144 10139 10135 10130 10125 10120 10115 10109 10104 10097 10092 10086 10079 10074 10068 10062 10055 10049 10044 10038
10337 10336 10334 10332 10329 10327 10325 10323 10321 10318 10315 10312 10309 10307 10304 10302 10299 10297 10295 10293 10290 10287 10283 10281 10277 10274 10269 10265 10261 10259 10258 10258 10257 10255 10252 10249 10246 10244 10241 10237 10233 10230 10226 10223 10219 10216 10212 10209 10204 10200 10196 10192 10187 10183 10178 10174 10170 10166 10162 10157 10153 10148 10144 10139 10134 10130 10125 10120 10115 10110 10105 10100 10095 10089 10083 10077 10071 10065 10059 10053 10047 10041 10035 10029 10023
10320 10318 10317 10315 10312 10309 10307 10305 10303 10301 10298 10295 10292 10290 10287 10285 10282 10280 10278 10276 10273 10269 10266 10263 10260 10257 10253 10247 10243 10241 10241 10242 10242 10239 10236 10233 10231 10228 10225 10220 10217 10213 10210 10206 10203 10200 10196 10192 10189 10185 10181 10176 10172 10167 10163 10159 10155 10151 10147 10143 10139 10134 10129 10125 10120 10115 10110 10106 10101 10096 10091 10085 10079 10074 10068 10062 10056 10050 10044 10038 10032 10026 10020 10014 10008
10302 10300 10298 10297 10294 10292 10290 10287 10285 10283 10280 10277 10275 10272 10270 10268 10266 10264 10262 10259 10256 10253 10250 10246 10241 10238 10235 10229 10225 10223 10224 10226 10226 10223 10220 10218 10215 10212 10208 10204 10201 10197 10194 10190 10187 10183 10180 10177 10173 10169 10165 10161 10157 10153 10149 10145 10141 10136 10132 10128 10124 10120 10115 10110 10106 10101 10096 10091 10086 10081 10076 10070 10064 10059 10053 10048 10042 10036 10030 10024 10018 10012 10006 9999 9994
10281 10280 10279 10277 10276 10274 10272 10270 10267 10264 10262 10260 10257 10254 10252 10250 10248 10247 10246 10244 10241 10237 10233 10228 10223 10219 10216 10212 10209 10207 10206 10207 10207 10206 10204 10202 10199 10195 10192 10189 10185 10182 10178 10175 10172 10168 10165 10162 10158 10155 10151 10147 10143 10139 10135 10131 10126 10122 10118 10113 10109 10105 10100 10096 10091 10086 10081 10077 10071 10066 10061 10055 10050 10044 10039 10033 10028 10022 10016 10010 10004 9997 9991 9985 9979
10261 10261 10259 10258 10257 10255 10253 10252 10249 10246 10243 10241 10238 10236 10234 10232 10230 10229 10229 10228 10226 10223 10218 10211 10205 10201 10198 10196 10194 10192 10190 10189 10188 10187 10185 10183 10181 10178 10175 10172 10169 10166 10163 10160 10156 10153 10150 10147 10143 10140 10136 10132 10128 10124 10120 10116 10112 10107 10103 10098 10094 10090 10085 10081 10076 10072 10067 10062 10057 10052 10047 10041 10035 10030 10024 10019 10013 10008 10002 9995 9989 9983 9977 9971 9965
10243 10242 10240 10239 10238 10236 10234 10232 10230 10227 10225 10222 10219 10217 10216 10214 10213 10211 10211 10210 10209 10206 10201 10195 10189 10185 10181 10180 10179 10178 10175 10174 10171 10169 10167 10165 10163 10161 10158 10155 10152 10150 10147 10144 10141 10137 10134 10131 10128 10124 10121 10117 10113 10109 10105 10101 10096 10092 10088 10084 10079 10075 10071 10067 10062 10057 10053 10048 10043 10038 10032 10027 10021 10015 10010 10004 9999 9993 9987 9982 9975 9970 9964 9959 9953
10225 10223 10222 10221 10219 10217 10214 10212 10210 10208 10206 10204 10202 10200 10199 10197 10196 10194 10193 10191 10188 10186 10184 10180 10175 10171 10167 10164 10164 10163 10161 10159 10156 10153 10151 10150 10147 10145 10142 10139 10137 10134 10132 10129 10125 10122 10119 10116 10113 10110 10106 10102 10098 10094 10090 10086 10082 10077 10073 10069 10065 10061 10057 10052 10048 10043 10039 10034 10029 10024 10018 10012 10007 10001 9995 9989 9984 9978 9973 9967 9962 9956 9951 9946 9940
10207 10206 10204 10203 10201 10199 10196 10193 10191 10189 10187 10186 10184 10182 10181 10179 10178 10176 10175 10172 10169 10168 10166 10164 10161 10157 10153 10150 10150 10149 10147 10144 10142 10139 10137 10135 10132 10130 10128 10125 10123 10120 10117 10114 10110 10107 10104 10101 10098 10095 10092 10088 10084 10080 10076 10072 10068 10064 10059 10055 10051 10047 10043 10038 10034 10029 10024 10020 10015 10009 10004 9998 9992 9986 9980 9974 9969 9964 9959 9954 9948 9943 9939 9933 9927
10190 10188 10187 10186 10184 10181 10178 10176 10174 10172 10170 10168 10166 10164 10164 10162 10161 10159 10157 10155 10152 10151 10149 10147 10144 10141 10138 10136 10136 10135 10133 10130 10128 10125 10123 10120 10118 10116 10114 10111 10109 10106 10103 10099 10096 10093 10090 10087 10084 10081 10077 10074 10071 10067 10063 10059 10055 10050 10046 10042 10037 10033 10028 10024 10019 10014 10009 10005 9999 9994 9988 9982 9976 9970 9965 9959 9955 9950 9946 9941 9936 9931 9926 9921 9915
10173 10171 10170 10169 10167 10165 10162 10160 10158 10156 10154 10152 10150 10148 10147 10146 10145 10143 10141 10139 10136 10134 10132 10130 10128 10125 10123 10122 10121 10120 10118 10116 10113 10111 10109 10107 10104 10101 10099 10096 10094 10091 10088 10085 10081 10078 10075 10072 10069 10066 10063 10060 10057 10053 10049 10046 10041 10037 10032 10027 10023 10018 10013 10008 10004 9999 9994 9989 9984 9978 9973 9967 9961 9956 9950 9946 9941 9937 9932 9928 9923 9919 9913 9908 9901
10156 10155 10154 10153 10152 10149 10147 10145 10143 10140 10139 10138 10136 10133 10132 10131 10129 10128 10126 10124 10121 10119 10117 10116 10114 10111 10109 10108 10107 10106 10104 10102 10100 10097 10095 10093 10090 10088 10085 10082 10079 10076 10073 10070 10067 10065 10062 10059 10056 10053 10050 10046 10043 10039 10035 10031 10027 10022 10017 10012 10007 10003 9998 9993 9989 9984 9979 9974 9969 9963 9958 9952 9947 9942 9937 9932 9928 9924 9919 9914 9910 9905 9899 9894 9888
10139 10139 10138 10137 10136 10134 10131 10129 10128 10125 10124 10123 10121 10119 10118 10117 10115 10113 10111 10109 10106 10104 10103 10102 10100 10098 10096 10095 10094 10093 10092 10089 10087 10084 10081 10078 10076 10073 10070 10067 10064 10061 10059 10057 10054 10051 10048 10045 10042 10039 10035 10031 10028 10024 10020 10016 10011 10007 10002 9998 9993 9988 9983 9979 9974 9970 9965 9960 9955 9949 9943 9938 9933 9929 9924 9920 9916 9911 9905 9900 9895 9890 9885 9879 9874
10124 10123 10122 10121 10119 10117 10115 10113 10112 10110 10109 10107 10106 10105 10104 10103 10102 10099 10097 10095 10092 10090 10088 10087 10086 10084 10083 10082 10081 10080 10078 10076 10074 10071 10068 10065 10062 10060 10056 10053 10050 10048 10045 10043 10040 10037 10034 10031 10027 10024 10020 10017 10013 10009 10005 10001 9996 9992 9988 9983 9979 9974 9969 9965 9960 9956 9951 9946 9941 9935 9930 9925 9921 9916 9911 9907 9903 9897 9891 9886 9880 9875 9870 9865 9860
10110 10108 10107 10105 10103 10101 10100 10097 10096 10095 10093 10091 10091 10090 10089 10088 10087 10085 10083 10081 10079 10076 10074 10073 10071 10069 10068 10068 10067 10066 10064 10062 10060 10057 10055 10052 10049 10046 10043 10040 10037 10034 10031 10028 10025 10022 10019 10016 10013 10009 10006 10002 9998 9994 9990 9986 9982 9977 9973 9969 9964 9959 9954 9950 9945 9941 9937 9931 9926 9921 9917 9912 9908 9903 9898 9893 9888 9883 9877 9872 9866 9861 9856 9852 9846
10097 10094 10092 10091 10089 10087 10085 10082 10081 10079 10077 10076 10076 10076 10075 10074 10073 10071 10069 10067 10065 10063 10061 10059 10057 10055 10054 10053 10052 10052 10050 10048 10046 10043 10041 10038 10035 10032 10029 10026 10023 10020 10017 10014 10011 10008 10005 10002 9999 9995 9991 9987 9983 9979 9975 9971 9966 9962 9957 9953 9948 9944 9939 9934 9930 9926 9921 9917 9912 9907 9903 9899 9894 9889 9883 9878 9874 9869 9863 9857 9853 9848 9843 9838 9833
10084 10081 10079 10077 10075 10073 10070 10069 10067 10065 10062 10061 10061 10061 10060 10060 10059 10057 10056 10054 10052 10050 10048 10046 10044 10042 10040 10039 10039 10038 10037 10035 10032 10029 10026 10024 10021 10019 10016 10013 10010 10007 10004 10000 9997 9994 9990 9987 9984 9980 9976 9972 9968 9964 9959 9955 9951 9947 9942 9937 9933 9928 9923 9919 9915 9911 9906 9901 9897 9893 9889 9885 9880 9874 9869 9864 9860 9855 9849 9844 9839 9835 9830 9825 9820
10070 10067 10065 10064 10061 10059 10057 10055 10053 10051 10049 10047 10046 10046 10046 10045 10044 10043 10042 10040 10038 10037 10035 10033 10031 10028 10027 10026 10025 10024 10022 10020 10018 10015 10012 10010 10008 10005 10002 9999 9996 9993 9990 9987 9983 9980 9976 9973 9969 9965 9961 9957 9953 9948 9944 9940 9935 9931 9926 9922 9917 9912 9908 9904 9900 9896 9892 9887 9883 9879 9875 9871 9865 9860 9855 9850 9845 9841 9836 9831 9826 9822 9817 9812 9807
10054 10052 10051 10050 10048 10047 10045 10043 10040 10037 10036 10034 10033 10032 10031 10030 10030 10029 10027 10025 10024 10022 10021 10020 10018 10015 10013 10012 10011 10009 10007 10005 10003 10001 9998 9996 9993 9991 9988 9985 9982 9979 9977 9973 9970 9967 9963 9959 9955 9951 9947 9942 9938 9934 9929 9925 9920 9915 9911 9906 9902 9897 9894 9890 9887 9883 9878 9874 9870 9865 9861 9856 9851 9845 9840 9836 9832 9827 9822 9817 9813 9809 9804 9799 9794
10039 10037 10037 10036 10034 10033 10032 10031 10028 10025 10023 10021 10020 10019 10017 10016 10016 10015 10013 10011 10010 10008 10007 10005 10004 10001 9999 9998 9996 9994 9993 9991 9989 9987 9984 9982 9979 9977 9974 9971 9968 9965 9962 9959 9956 9953 9949 9945 9941 9937 9932 9928 9924 9919 9915 9910 9905 9900 9896 9891 9887 9884 9881 9878 9874 9870 9865 9861 9856 9851 9845 9840 9835 9830 9826 9822 9818 9813 9809 9804 9800 9795 9791 9786 9781
10025 10023 10023 10023 10021 10018 10017 10016 10015 10013 10011 10009 10007 10005 10005 10004 10003 10001 10000 9998 9996 9995 9994 9992 9990 9988 9986 9984 9982 9981 9979 9977 9975 9973 9970 9968 9966 9963 9960 9957 9954 9951 9948 9946 9942 9938 9935 9931 9927 9923 9918 9913 9909 9904 9900 9895 9890 9886 9882 9878 9874 9870 9867 9863 9859 9855 9850 9846 9841 9835 9830 9825 9820 9815 9811 9807 9803 9799 9795 9790 9786 9782 9778 9773 9769
10011 10010 10009 10008 10007 10005 10003 10001 9999 9998 9998 9996 9994 9992 9992 9991 9990 9989 9987 9985 9984 9982 9981 9979 9977 9975 9973 9972 9970 9968 9966 9964 9962 9960 9957 9955 9952 9949 9946 9944 9941 9938 9935 9932 9928 9925 9921 9917 9913 9908 9903 9898 9894 9889 9885 9881 9877 9873 9869 9865 9861 9856 9852 9848 9844 9839 9834 9830 9826 9820 9815 9810 9805 9801 9796 9793 9789 9785 9781 9777 9773 9769 9765 9761 9757
9997 9996 9995 9994 9993 9992 9990 9987 9985 9984 9983 9981 9980 9979 9978 9978 9977 9976 9973 9972 9971 9969 9968 9966 9964 9962 9961 9959 9957 9955 9954 9952 9949 9947 9944 9942 9939 9937 9934 9931 9928 9925 9922 9919 9915 9911 9907 9903 9898 9893 9888 9883 9879 9875 9871 9868 9864 9861 9856 9852 9847 9842 9838 9833 9828 9823 9819 9815 9811 9806 9801 9796 9791 9787 9783 9779 9775 9772 9768 9764 9760 9756 9752 9748 9745
9982 9981 9981 9980 9979 9978 9976 9974 9972 9970 9969 9967 9966 9964 9964 9964 9963 9962 9960 9958 9957 9956 9954 9953 9952 9950 9948 9946 9945 9943 9941 9938 9936 9934 9932 9929 9927 9925 9922 9919 9916 9912 9908 9904 9900 9896 9892 9887 9882 9878 9873 9869 9865 9862 9858 9855 9851 9847 9843 9838 9833 9828 9823 9818 9813 9808 9804 9800 9796 9790 9785 9781 9777 9773 9770 9766 9762 9759 9756 9752 9748 9744 9740 9737 9734
9967 9966 9966 9966 9965 9964 9962 9960 9958 9956 9955 9953 9952 9951 9950 9949 9949 9948 9946 9945 9943 9942 9941 9940 9938 9936 9935 9933 9931 9929 9927 9925 9922 9921 9919 9916 9914 9911 9908 9905 9901 9898 9894 9890 9885 9881 9876 9871 9867 9863 9859 9856 9853 9849 9846 9842 9838 9833 9828 9823 9818 9813 9809 9804 9799 9795 9791 9787 9781 9776 9771 9767 9764 9760 9756 9753 9750 9747 9743 9739 9736 9732 9728 9725 9722